Weather History for PAMH - August, 2013

Change the Weather History Date:

Thursday, August 15, 2013

  Actual Average Record
Temperature  
Mean Temperature 58 °F -  
Max Temperature 69 °F 59 °F 78 °F (2004)
Min Temperature 48 °F 47 °F 37 °F (2002)
Degree Days  
Heating Degree Days 6    
Growing Degree Days 8 (Base 50)    
Moisture  
Dew Point 45 °F    
Average Humidity 66    
Maximum Humidity 88    
Minimum Humidity 40    
Precipitation  
Precipitation 0.00 in - - ()
Sea Level Pressure  
Sea Level Pressure 29.79 in    
Wind  
Wind Speed 1 mph (East)    
Max Wind Speed 5 mph    
Max Gust Speed -    
Visibility 10 miles    
Events      
Averages and records for this station are not official NWS values.
T = Trace of Precipitation, MM = Missing Value Source: NWS Daily Summary

Daily Weather History Graph

Daily Weather History Graph

Search for Another Location

Airport or City:

Trip Planner

Search our weather history database for the weather conditions in past years. The results will help you decide how hot, cold, wet, or windy it might be!

Date:

Astronomy

Aug. 15, 2013 Rise Set
Actual Time 6:03 AM AKDT 10:21 PM AKDT
Civil Twilight 4:59 AM AKDT 11:24 PM AKDT
Nautical Twilight 2:42 AM AKDT 1:28 AM AKDT
Astronomical Twilight Sun does not rise Sun does not rise
Moon 6:38 PM AKDT (8/15) No Moon Set
Length of Visible Light 18h 24m
Length of Day
16h 18m
Waxing Gibbous, 66% of the Moon is Illuminated
Aug 15
Waxing Gibbous
Aug 20
Full
Aug 28
Last Quarter
Sep 5
New
Sep 12
First Quarter

Hourly Weather History & Observations

Time (AKDT) Temp. Dew Point Humidity Pressure Visibility Wind Dir Wind Speed Gust Speed Precip Events Conditions
12:16 AM 53.6 °F 42.8 °F 67% 29.86 in 10.0 mi Calm Calm - N/A   Clear
12:36 AM 53.6 °F 42.8 °F 67% 29.86 in 10.0 mi Calm Calm - N/A   Clear
12:56 AM 53.6 °F 42.8 °F 67% 29.86 in 10.0 mi Calm Calm - N/A   Clear
1:16 AM 51.8 °F 42.8 °F 71% 29.86 in 10.0 mi Calm Calm - N/A   Clear
1:36 AM 51.8 °F 44.6 °F 76% 29.86 in 10.0 mi Calm Calm - N/A   Clear
1:56 AM 51.8 °F 42.8 °F 71% 29.86 in 10.0 mi Calm Calm - N/A   Clear
2:16 AM 51.8 °F 42.8 °F 71% 29.85 in 10.0 mi Calm Calm - N/A   Clear
2:36 AM 50.0 °F 42.8 °F 76% 29.85 in 10.0 mi Calm Calm - N/A   Clear
2:56 AM 50.0 °F 44.6 °F 82% 29.85 in 10.0 mi Calm Calm - N/A   Clear
3:16 AM 50.0 °F 46.4 °F 87% 29.85 in 10.0 mi Calm Calm - N/A   Clear
3:36 AM 50.0 °F 44.6 °F 82% 29.84 in 10.0 mi Calm Calm - N/A   Clear
3:56 AM 50.0 °F 44.6 °F 82% 29.84 in 10.0 mi Calm Calm - N/A   Clear
4:16 AM 48.2 °F 44.6 °F 87% 29.84 in 10.0 mi Calm Calm - N/A   Clear
4:36 AM 48.2 °F 44.6 °F 87% 29.84 in 10.0 mi Calm Calm - N/A   Clear
4:56 AM 48.2 °F 44.6 °F 87% 29.84 in 10.0 mi Calm Calm - N/A   Mostly Cloudy
5:16 AM 50.0 °F 44.6 °F 82% 29.83 in 10.0 mi Calm Calm - N/A   Scattered Clouds
5:36 AM 51.8 °F 44.6 °F 76% 29.83 in 10.0 mi Calm Calm - N/A   Clear
5:56 AM 50.0 °F 46.4 °F 87% 29.83 in 10.0 mi Calm Calm - N/A   Clear
6:16 AM 50.0 °F 46.4 °F 87% 29.82 in 10.0 mi Calm Calm - N/A   Clear
6:36 AM 51.8 °F 46.4 °F 82% 29.82 in 10.0 mi Calm Calm - N/A   Partly Cloudy
6:56 AM 50.0 °F 46.4 °F 87% 29.82 in 10.0 mi Calm Calm - N/A   Mostly Cloudy
7:16 AM 50.0 °F 44.6 °F 82% 29.82 in 10.0 mi Calm Calm - N/A   Mostly Cloudy
7:36 AM 50.0 °F 44.6 °F 82% 29.82 in 10.0 mi Calm Calm - N/A   Clear
7:56 AM 50.0 °F 44.6 °F 82% 29.82 in 10.0 mi Calm Calm - N/A   Partly Cloudy
8:16 AM 51.8 °F 44.6 °F 76% 29.82 in 10.0 mi Calm Calm - N/A   Scattered Clouds
8:36 AM 51.8 °F 46.4 °F 82% 29.82 in 10.0 mi Calm Calm - N/A   Mostly Cloudy
8:56 AM 51.8 °F 46.4 °F 82% 29.82 in 10.0 mi ESE 3.5 mph - N/A   Overcast
9:16 AM 51.8 °F 48.2 °F 88% 29.81 in 10.0 mi Calm Calm - N/A   Overcast
9:36 AM 53.6 °F 48.2 °F 82% 29.82 in 10.0 mi Calm Calm - N/A   Mostly Cloudy
9:56 AM 53.6 °F 48.2 °F 82% 29.81 in 10.0 mi Calm Calm - N/A   Partly Cloudy
10:16 AM 53.6 °F 46.4 °F 77% 29.81 in 10.0 mi Calm Calm - N/A   Partly Cloudy
10:36 AM 55.4 °F 48.2 °F 77% 29.81 in 10.0 mi Calm Calm - N/A   Scattered Clouds
10:56 AM 55.4 °F 46.4 °F 72% 29.80 in 10.0 mi Calm Calm - N/A   Mostly Cloudy
11:16 AM 55.4 °F 46.4 °F 72% 29.80 in 10.0 mi Calm Calm - N/A   Mostly Cloudy
11:36 AM 57.2 °F 48.2 °F 72% 29.80 in 10.0 mi Calm Calm - N/A   Mostly Cloudy
11:56 AM 60.8 °F 46.4 °F 59% 29.80 in 10.0 mi Calm Calm - N/A   Scattered Clouds
12:16 PM 62.6 °F 46.4 °F 55% 29.80 in 10.0 mi Calm Calm - N/A   Mostly Cloudy
12:36 PM 60.8 °F 46.4 °F 59% 29.80 in 10.0 mi East 3.5 mph - N/A   Mostly Cloudy
12:56 PM 62.6 °F 46.4 °F 55% 29.79 in 10.0 mi East 3.5 mph - N/A   Overcast
1:16 PM 62.6 °F 44.6 °F 52% 29.79 in 10.0 mi East 3.5 mph - N/A   Scattered Clouds
1:36 PM 64.4 °F 44.6 °F 49% 29.78 in 10.0 mi East 3.5 mph - N/A   Clear
1:56 PM 64.4 °F 44.6 °F 49% 29.78 in 10.0 mi Calm Calm - N/A   Clear
2:16 PM 66.2 °F 46.4 °F 49% 29.77 in 10.0 mi East 4.6 mph - N/A   Partly Cloudy
2:36 PM 66.2 °F 44.6 °F 46% 29.77 in 10.0 mi ESE 4.6 mph - N/A   Scattered Clouds
2:56 PM 66.2 °F 44.6 °F 46% 29.77 in 10.0 mi East 3.5 mph - N/A   Mostly Cloudy
3:16 PM 66.2 °F 44.6 °F 46% 29.76 in 10.0 mi Calm Calm - N/A   Scattered Clouds
3:36 PM 66.2 °F 42.8 °F 43% 29.76 in 10.0 mi East 3.5 mph - N/A   Clear
3:56 PM 66.2 °F 44.6 °F 46% 29.75 in 10.0 mi SE 3.5 mph - N/A   Clear
4:16 PM 68.0 °F 44.6 °F 43% 29.74 in 10.0 mi ESE 4.6 mph - N/A   Clear
4:36 PM 68.0 °F 42.8 °F 40% 29.74 in 10.0 mi SSE 3.5 mph - N/A   Mostly Cloudy
4:56 PM 69.8 °F 44.6 °F 40% 29.74 in 10.0 mi East 3.5 mph - N/A   Overcast
5:16 PM 69.8 °F 44.6 °F 40% 29.73 in 10.0 mi Calm Calm - N/A   Overcast
5:36 PM 66.2 °F 44.6 °F 46% 29.73 in 10.0 mi Calm Calm - N/A   Overcast
5:56 PM 68.0 °F 44.6 °F 43% 29.73 in 10.0 mi Calm Calm - N/A   Overcast
6:16 PM 68.0 °F 46.4 °F 46% 29.72 in 10.0 mi Calm Calm - N/A   Overcast
6:36 PM 69.8 °F 46.4 °F 43% 29.72 in 10.0 mi Calm Calm - N/A   Mostly Cloudy
6:56 PM 68.0 °F 46.4 °F 46% 29.71 in 10.0 mi ENE 3.5 mph - N/A   Clear
7:16 PM 66.2 °F 46.4 °F 49% 29.71 in 10.0 mi ENE 4.6 mph - N/A   Clear
7:36 PM 66.2 °F 46.4 °F 49% 29.71 in 10.0 mi Calm Calm - N/A   Clear
7:56 PM 64.4 °F 46.4 °F 52% 29.71 in 10.0 mi ENE 4.6 mph - N/A   Clear
9:56 PM 60.8 °F 46.4 °F 59% 29.71 in 10.0 mi Calm Calm - N/A   Scattered Clouds
10:16 PM 57.2 °F 46.4 °F 67% 29.71 in 10.0 mi Calm Calm - N/A   Mostly Cloudy
10:36 PM 57.2 °F 46.4 °F 67% 29.71 in 10.0 mi Calm Calm - N/A   Overcast
10:56 PM 57.2 °F 46.4 °F 67% 29.71 in 10.0 mi Calm Calm - N/A   Overcast
11:16 PM 57.2 °F 46.4 °F 67% 29.70 in 10.0 mi Calm Calm - N/A   Overcast
11:36 PM 57.2 °F 48.2 °F 72% 29.71 in 10.0 mi Calm Calm - N/A   Overcast
11:56 PM 57.2 °F 46.4 °F 67% 29.70 in 10.0 mi Calm Calm - N/A   Mostly Cloudy